GIA009 WIPP-WIII

Flight info

Callsign GIA009
Flight time 0h 49m
Altitude 31000
Route UDOKO T5 BUNIK
Aircraft B738/M-SDE2E3FGHIRWXY/LB1

Departure

Time 2026-04-27 14:41
Airport Sultan Mahmud Badaruddin II Airport (WIPP)

Arrival

Time 2026-04-27 15:30
Airport Soekarno-Hatta International Airport (WIII)
Time Latitude Longitude Altitude Speed Heading
2026-04-27 14:19 -2.89627 104.70467 28 ft 0 kts 23°
2026-04-27 14:30 -2.89631 104.70465 29 ft 4 kts 22°
2026-04-27 14:30 -2.89657 104.70456 26 ft 4 kts 16°
2026-04-27 14:30 -2.89683 104.70450 27 ft 4 kts
2026-04-27 14:30 -2.89709 104.70452 29 ft 4 kts 334°
2026-04-27 14:31 -2.89722 104.70463 31 ft 1 kts 292°
2026-04-27 14:31 -2.89723 104.70466 31 ft 0 kts 292°
2026-04-27 14:33 -2.89705 104.70423 27 ft 14 kts 292°
2026-04-27 14:33 -2.89656 104.70300 25 ft 21 kts 283°
2026-04-27 14:34 -2.89718 104.70217 25 ft 13 kts 215°
2026-04-27 14:34 -2.89716 104.70140 23 ft 14 kts 291°
2026-04-27 14:34 -2.89670 104.70031 21 ft 20 kts 292°
2026-04-27 14:34 -2.89607 104.69884 18 ft 26 kts 292°
2026-04-27 14:35 -2.89557 104.69764 18 ft 29 kts 293°
2026-04-27 14:35 -2.89439 104.69486 17 ft 33 kts 292°
2026-04-27 14:35 -2.89396 104.69384 18 ft 25 kts 292°
2026-04-27 14:35 -2.89308 104.69175 18 ft 19 kts 293°
2026-04-27 14:36 -2.89281 104.69110 21 ft 14 kts 292°
2026-04-27 14:36 -2.89276 104.69026 19 ft 11 kts 240°
2026-04-27 14:36 -2.89290 104.69012 20 ft 0 kts 215°
2026-04-27 14:37 -2.89309 104.69002 19 ft 8 kts 206°
2026-04-27 14:38 -2.89365 104.68962 20 ft 12 kts 240°
2026-04-27 14:38 -2.89357 104.68867 19 ft 17 kts 293°
2026-04-27 14:38 -2.89301 104.68737 17 ft 18 kts 291°
2026-04-27 14:38 -2.89267 104.68640 19 ft 10 kts 275°
2026-04-27 14:39 -2.89267 104.68578 18 ft 4 kts 288°
2026-04-27 14:39 -2.89235 104.68551 17 ft 7 kts 355°
2026-04-27 14:39 -2.89228 104.68559 17 ft 2 kts 72°
2026-04-27 14:39 -2.89231 104.68569 17 ft 2 kts 105°
2026-04-27 14:40 -2.89234 104.68577 17 ft 0 kts 108°
2026-04-27 14:40 -2.89304 104.68742 18 ft 71 kts 113°
2026-04-27 14:40 -2.89625 104.69499 35 ft 156 kts 112°
2026-04-27 14:41 -2.90110 104.70579 719 ft 183 kts 114°
2026-04-27 14:41 -2.90647 104.71749 1775 ft 194 kts 109°
2026-04-27 14:41 -2.90753 104.73183 2204 ft 225 kts 75°
2026-04-27 14:41 -2.89834 104.74523 2426 ft 252 kts 36°
2026-04-27 14:42 -2.88133 104.75029 2917 ft 265 kts 358°
2026-04-27 14:42 -2.86259 104.74688 3289 ft 284 kts 356°
2026-04-27 14:42 -2.84402 104.75165 4312 ft 274 kts 34°
2026-04-27 14:42 -2.83176 104.76575 5421 ft 271 kts 65°
2026-04-27 14:43 -2.82420 104.78352 5828 ft 288 kts 67°
2026-04-27 14:43 -2.81541 104.80156 5707 ft 287 kts 62°
2026-04-27 14:43 -2.80547 104.81834 5656 ft 280 kts 58°
2026-04-27 14:43 -2.79496 104.83456 5601 ft 275 kts 57°
2026-04-27 14:44 -2.78587 104.85114 5589 ft 270 kts 74°
2026-04-27 14:44 -2.78465 104.86981 5701 ft 275 kts 102°
2026-04-27 14:44 -2.79234 104.88734 6501 ft 278 kts 126°
2026-04-27 14:44 -2.80579 104.90116 7452 ft 278 kts 138°
2026-04-27 14:45 -2.82059 104.91371 8357 ft 281 kts 140°
2026-04-27 14:45 -2.83582 104.92617 9227 ft 285 kts 140°
2026-04-27 14:45 -2.85127 104.93875 10109 ft 288 kts 140°
2026-04-27 14:45 -2.86691 104.95152 10917 ft 292 kts 140°
2026-04-27 14:46 -2.88262 104.96456 11730 ft 295 kts 140°
2026-04-27 14:46 -2.89846 104.97785 12542 ft 299 kts 139°
2026-04-27 14:46 -2.91446 104.99131 13360 ft 303 kts 139°
2026-04-27 14:46 -2.93068 105.00497 14102 ft 306 kts 139°
2026-04-27 14:47 -2.94708 105.01876 14805 ft 310 kts 139°
2026-04-27 14:47 -2.96370 105.03274 15518 ft 314 kts 139°
2026-04-27 14:47 -2.98052 105.04689 16219 ft 318 kts 139°
2026-04-27 14:47 -2.99759 105.06123 16928 ft 322 kts 139°
2026-04-27 14:48 -3.01482 105.07572 17630 ft 326 kts 139°
2026-04-27 14:48 -3.04978 105.10509 18891 ft 333 kts 139°
2026-04-27 14:48 -3.06761 105.12008 19497 ft 337 kts 139°
2026-04-27 14:49 -3.08566 105.13524 20096 ft 340 kts 139°
2026-04-27 14:49 -3.10388 105.15055 20692 ft 344 kts 139°
2026-04-27 14:49 -3.12228 105.16601 21295 ft 347 kts 139°
2026-04-27 14:49 -3.14089 105.18165 21880 ft 351 kts 139°
2026-04-27 14:50 -3.15965 105.19742 22527 ft 352 kts 140°
2026-04-27 14:50 -3.17852 105.21327 23060 ft 357 kts 140°
2026-04-27 14:50 -3.19762 105.22933 23591 ft 360 kts 140°
2026-04-27 14:50 -3.21688 105.24551 24045 ft 363 kts 140°
2026-04-27 14:51 -3.23628 105.26182 24503 ft 366 kts 140°
2026-04-27 14:51 -3.25586 105.27828 24976 ft 368 kts 140°
2026-04-27 14:51 -3.27541 105.29471 25440 ft 362 kts 139°
2026-04-27 14:51 -3.29413 105.31045 25994 ft 342 kts 139°
2026-04-27 14:52 -3.31214 105.32558 26586 ft 335 kts 139°
2026-04-27 14:52 -3.32962 105.34028 27189 ft 331 kts 139°
2026-04-27 14:52 -3.34717 105.35504 27817 ft 328 kts 139°
2026-04-27 14:52 -3.36450 105.36961 28449 ft 324 kts 139°
2026-04-27 14:53 -3.38175 105.38412 28882 ft 328 kts 139°
2026-04-27 14:53 -3.39960 105.39914 28964 ft 342 kts 139°
2026-04-27 14:53 -3.41816 105.41476 29096 ft 354 kts 139°
2026-04-27 14:53 -3.43735 105.43091 29211 ft 367 kts 139°
2026-04-27 14:54 -3.45725 105.44764 29334 ft 379 kts 139°
2026-04-27 14:54 -3.47775 105.46490 29444 ft 391 kts 139°
2026-04-27 14:54 -3.49888 105.48267 29554 ft 402 kts 139°
2026-04-27 14:54 -3.52033 105.50071 29994 ft 403 kts 139°
2026-04-27 14:55 -3.54176 105.51874 30495 ft 401 kts 139°
2026-04-27 14:55 -3.56302 105.53662 30865 ft 400 kts 139°
2026-04-27 14:55 -3.60583 105.57254 30886 ft 408 kts 139°
2026-04-27 14:56 -3.65046 105.60976 30895 ft 426 kts 139°
2026-04-27 14:56 -3.69689 105.64847 30897 ft 442 kts 139°
2026-04-27 14:57 -3.74425 105.68797 30881 ft 448 kts 139°
2026-04-27 14:57 -3.79213 105.72794 30877 ft 448 kts 139°
2026-04-27 14:58 -3.83990 105.76783 30873 ft 446 kts 139°
2026-04-27 14:58 -3.89044 105.80353 30881 ft 444 kts 154°
2026-04-27 14:59 -3.94923 105.82219 30891 ft 443 kts 166°
2026-04-27 14:59 -4.00896 105.83556 30878 ft 442 kts 167°
2026-04-27 15:00 -4.06903 105.84907 30882 ft 442 kts 166°
2026-04-27 15:00 -4.12909 105.86295 30884 ft 443 kts 166°
2026-04-27 15:01 -4.18925 105.87703 30883 ft 444 kts 166°
2026-04-27 15:01 -4.24951 105.89119 30884 ft 445 kts 166°
2026-04-27 15:02 -4.30995 105.90539 30884 ft 446 kts 166°
2026-04-27 15:02 -4.37036 105.91958 30881 ft 446 kts 166°
2026-04-27 15:03 -4.43072 105.93375 30876 ft 443 kts 166°
2026-04-27 15:03 -4.48973 105.94759 30876 ft 430 kts 166°
2026-04-27 15:04 -4.51834 105.95430 30866 ft 414 kts 166°
2026-04-27 15:04 -4.54592 105.96077 30859 ft 400 kts 166°
2026-04-27 15:04 -4.59992 105.97346 30890 ft 398 kts 166°
2026-04-27 15:05 -4.65399 105.98618 30891 ft 400 kts 166°
2026-04-27 15:05 -4.70824 105.99893 30890 ft 401 kts 166°
2026-04-27 15:06 -4.76253 106.01169 30884 ft 401 kts 166°
2026-04-27 15:06 -4.81649 106.02438 30882 ft 400 kts 166°
2026-04-27 15:07 -4.87041 106.03704 30769 ft 392 kts 166°
2026-04-27 15:07 -4.89688 106.04327 30425 ft 390 kts 166°
2026-04-27 15:07 -4.92332 106.04948 29983 ft 391 kts 166°
2026-04-27 15:08 -4.94981 106.05572 29508 ft 390 kts 166°
2026-04-27 15:08 -4.97614 106.06191 29126 ft 387 kts 166°
2026-04-27 15:08 -5.00222 106.06804 28758 ft 383 kts 166°
2026-04-27 15:08 -5.02824 106.07416 28240 ft 384 kts 166°
2026-04-27 15:09 -5.05426 106.08028 27749 ft 384 kts 166°
2026-04-27 15:09 -5.08030 106.08641 27259 ft 384 kts 166°
2026-04-27 15:09 -5.10637 106.09254 26782 ft 384 kts 166°
2026-04-27 15:09 -5.13239 106.09867 26313 ft 384 kts 166°
2026-04-27 15:10 -5.15839 106.10478 25846 ft 384 kts 166°
2026-04-27 15:10 -5.18443 106.11091 25367 ft 384 kts 166°
2026-04-27 15:10 -5.21040 106.11702 24894 ft 384 kts 166°
2026-04-27 15:10 -5.23634 106.12313 24429 ft 383 kts 166°
2026-04-27 15:11 -5.26200 106.12917 23980 ft 383 kts 166°
2026-04-27 15:11 -5.28792 106.13527 23532 ft 382 kts 165°
2026-04-27 15:11 -5.31377 106.14136 23008 ft 381 kts 165°
2026-04-27 15:11 -5.33961 106.14744 22476 ft 381 kts 165°
2026-04-27 15:12 -5.36523 106.15347 21937 ft 374 kts 165°
2026-04-27 15:12 -5.39030 106.15937 21416 ft 366 kts 165°
2026-04-27 15:12 -5.41482 106.16513 20903 ft 358 kts 165°
2026-04-27 15:12 -5.43881 106.17078 20397 ft 351 kts 165°
2026-04-27 15:13 -5.46241 106.17634 19908 ft 346 kts 165°
2026-04-27 15:13 -5.48559 106.18180 19424 ft 340 kts 165°
2026-04-27 15:13 -5.50844 106.18718 18944 ft 334 kts 165°
2026-04-27 15:13 -5.53101 106.19250 18487 ft 333 kts 165°
2026-04-27 15:14 -5.55349 106.19780 18002 ft 330 kts 165°
2026-04-27 15:14 -5.57569 106.20303 17463 ft 325 kts 165°
2026-04-27 15:14 -5.59753 106.20818 16963 ft 320 kts 165°
2026-04-27 15:14 -5.61900 106.21324 16532 ft 316 kts 165°
2026-04-27 15:15 -5.64042 106.21830 16122 ft 314 kts 165°
2026-04-27 15:15 -5.66144 106.22325 15708 ft 307 kts 165°
2026-04-27 15:15 -5.68207 106.22811 15303 ft 301 kts 165°
2026-04-27 15:15 -5.70231 106.23288 14920 ft 296 kts 165°
2026-04-27 15:16 -5.72232 106.23760 14566 ft 296 kts 165°
2026-04-27 15:16 -5.74238 106.24234 14205 ft 297 kts 165°
2026-04-27 15:16 -5.76251 106.24709 13853 ft 298 kts 165°
2026-04-27 15:16 -5.78244 106.25179 13476 ft 297 kts 165°
2026-04-27 15:17 -5.80236 106.25649 13059 ft 291 kts 165°
2026-04-27 15:17 -5.82206 106.26114 12671 ft 292 kts 165°
2026-04-27 15:17 -5.84183 106.26580 12281 ft 293 kts 165°
2026-04-27 15:17 -5.86159 106.27046 11887 ft 289 kts 165°
2026-04-27 15:18 -5.88096 106.27503 11495 ft 283 kts 165°
2026-04-27 15:18 -5.89998 106.27951 11112 ft 278 kts 165°
2026-04-27 15:18 -5.91869 106.28393 10731 ft 274 kts 166°
2026-04-27 15:18 -5.93709 106.28827 10359 ft 270 kts 166°
2026-04-27 15:19 -5.95524 106.29256 9994 ft 268 kts 166°
2026-04-27 15:19 -5.97348 106.29687 9631 ft 270 kts 166°
2026-04-27 15:19 -5.99168 106.30116 9207 ft 266 kts 166°
2026-04-27 15:19 -6.00981 106.30544 8836 ft 269 kts 166°
2026-04-27 15:20 -6.02800 106.30974 8529 ft 269 kts 166°
2026-04-27 15:20 -6.04610 106.31395 8181 ft 266 kts 167°
2026-04-27 15:20 -6.06389 106.31731 7836 ft 261 kts 169°
2026-04-27 15:20 -6.08160 106.32034 7504 ft 256 kts 169°
2026-04-27 15:21 -6.09904 106.32330 7177 ft 251 kts 169°
2026-04-27 15:21 -6.11610 106.32624 6897 ft 246 kts 169°
2026-04-27 15:21 -6.13296 106.32918 6604 ft 247 kts 169°
2026-04-27 15:21 -6.14994 106.33216 6312 ft 249 kts 169°
2026-04-27 15:22 -6.16704 106.33517 6003 ft 250 kts 169°
2026-04-27 15:22 -6.18427 106.33821 5689 ft 251 kts 169°
2026-04-27 15:22 -6.20099 106.34299 5354 ft 252 kts 148°
2026-04-27 15:22 -6.21366 106.35480 5095 ft 246 kts 126°
2026-04-27 15:23 -6.22299 106.36900 4790 ft 241 kts 121°
2026-04-27 15:23 -6.23161 106.38322 4484 ft 235 kts 121°
2026-04-27 15:23 -6.23799 106.39792 4140 ft 229 kts 97°
2026-04-27 15:23 -6.23708 106.40821 3934 ft 221 kts 73°
2026-04-27 15:24 -6.22940 106.42657 3532 ft 207 kts 67°
2026-04-27 15:24 -6.22576 106.43527 3330 ft 200 kts 68°
2026-04-27 15:24 -6.21892 106.45217 3032 ft 189 kts 68°
2026-04-27 15:24 -6.21429 106.46373 2998 ft 171 kts 68°
2026-04-27 15:25 -6.20995 106.47461 3007 ft 167 kts 69°
2026-04-27 15:25 -6.20706 106.48184 2993 ft 164 kts 69°
2026-04-27 15:25 -6.20145 106.49591 2943 ft 165 kts 69°
2026-04-27 15:25 -6.19715 106.50669 2747 ft 167 kts 69°
2026-04-27 15:26 -6.19288 106.51740 2543 ft 163 kts 68°
2026-04-27 15:26 -6.19004 106.52451 2405 ft 160 kts 68°
2026-04-27 15:26 -6.18598 106.53470 2207 ft 159 kts 68°
2026-04-27 15:26 -6.18186 106.54502 2005 ft 159 kts 68°
2026-04-27 15:27 -6.17774 106.55533 1805 ft 159 kts 68°
2026-04-27 15:27 -6.17365 106.56561 1601 ft 158 kts 68°
2026-04-27 15:27 -6.16957 106.57583 1395 ft 157 kts 68°
2026-04-27 15:27 -6.16551 106.58599 1189 ft 156 kts 68°
2026-04-27 15:28 -6.16148 106.59611 1001 ft 156 kts 68°
2026-04-27 15:28 -6.15744 106.60624 810 ft 156 kts 68°
2026-04-27 15:28 -6.15341 106.61635 621 ft 156 kts 68°
2026-04-27 15:28 -6.14936 106.62647 414 ft 158 kts 67°
2026-04-27 15:29 -6.14526 106.63638 269 ft 148 kts 68°
2026-04-27 15:29 -6.14173 106.64560 46 ft 135 kts 68°
2026-04-27 15:29 -6.13856 106.65358 39 ft 108 kts 68°
2026-04-27 15:29 -6.13621 106.65951 37 ft 75 kts 68°
2026-04-27 15:30 -6.13503 106.66187 40 ft 27 kts 50°
2026-04-27 15:30 -6.13387 106.66290 39 ft 0 kts 33°
2026-04-27 15:31 -6.13381 106.66293 39 ft 3 kts 30°
2026-04-27 15:32 -6.13331 106.66302 38 ft 5 kts 356°
2026-04-27 15:32 -6.13321 106.66302 36 ft 5 kts
2026-04-27 15:32 -6.13272 106.66343 38 ft 13 kts 65°
2026-04-27 15:32 -6.13227 106.66447 38 ft 19 kts 67°
2026-04-27 15:33 -6.13178 106.66579 36 ft 21 kts 70°
2026-04-27 15:33 -6.13118 106.66724 38 ft 24 kts 69°
2026-04-27 15:33 -6.13054 106.66886 38 ft 26 kts 68°
2026-04-27 15:33 -6.12986 106.67055 37 ft 26 kts 68°
2026-04-27 15:34 -6.12918 106.67225 38 ft 25 kts 68°
2026-04-27 15:34 -6.12858 106.67386 38 ft 24 kts 73°
2026-04-27 15:34 -6.12784 106.67533 36 ft 24 kts 61°
2026-04-27 15:34 -6.12699 106.67674 36 ft 23 kts 59°
2026-04-27 15:35 -6.12619 106.67784 37 ft 18 kts 44°
2026-04-27 15:35 -6.12512 106.67846 37 ft 14 kts 20°
2026-04-27 15:35 -6.12508 106.67848 37 ft 0 kts 20°
2026-04-27 15:36 -6.12500 106.67850 35 ft 4 kts 20°
2026-04-27 15:36 -6.12446 106.67861 37 ft 12 kts
2026-04-27 15:36 -6.12337 106.67857 37 ft 19 kts 348°
2026-04-27 15:36 -6.12200 106.67805 43 ft 22 kts 339°
2026-04-27 15:37 -6.12051 106.67747 51 ft 24 kts 339°
2026-04-27 15:37 -6.11897 106.67685 60 ft 23 kts 338°
2026-04-27 15:37 -6.11742 106.67622 63 ft 27 kts 338°
2026-04-27 15:37 -6.11529 106.67540 37 ft 30 kts 335°
2026-04-27 15:38 -6.11325 106.67458 37 ft 32 kts 339°
2026-04-27 15:38 -6.11208 106.67347 37 ft 20 kts 261°
2026-04-27 15:38 -6.11251 106.67211 37 ft 15 kts 267°
2026-04-27 15:38 -6.11252 106.67184 35 ft 0 kts 263°
2026-04-27 15:39 -6.11255 106.67182 35 ft 1 kts 229°
2026-04-27 15:39 -6.11261 106.67183 36 ft 1 kts 172°
2026-04-27 15:39 -6.11264 106.67191 35 ft 2 kts 99°
2026-04-27 15:40 -6.11249 106.67241 37 ft 13 kts 70°
2026-04-27 15:40 -6.11209 106.67343 37 ft 18 kts 63°
2026-04-27 15:40 -6.11101 106.67343 37 ft 21 kts 302°
2026-04-27 15:40 -6.11105 106.67188 37 ft 25 kts 256°
2026-04-27 15:41 -6.11149 106.67007 37 ft 28 kts 253°
2026-04-27 15:41 -6.11222 106.66820 37 ft 30 kts 248°
2026-04-27 15:41 -6.11301 106.66624 36 ft 31 kts 248°
2026-04-27 15:41 -6.11380 106.66426 37 ft 23 kts 248°
2026-04-27 15:42 -6.11467 106.66346 37 ft 18 kts 173°
2026-04-27 15:42 -6.11590 106.66391 35 ft 20 kts 158°
2026-04-27 15:42 -6.11693 106.66345 37 ft 18 kts 248°
2026-04-27 15:42 -6.11739 106.66222 37 ft 20 kts 248°
2026-04-27 15:43 -6.11791 106.66096 37 ft 14 kts 248°
2026-04-27 15:43 -6.11820 106.66016 37 ft 8 kts 252°
2026-04-27 15:43 -6.11832 106.65986 35 ft 2 kts 249°
2026-04-27 15:43 -6.11835 106.65977 36 ft 1 kts 248°
2026-04-27 15:44 -6.11838 106.65969 37 ft 1 kts 248°
2026-04-27 15:44 -6.11839 106.65967 37 ft 0 kts 248°